Tracking 17925 objects as of 20-February-2017
HD Live streaming from Space Station
objects crossing your sky now

MERIDIAN 3

Track MERIDIAN 3 now!
MERIDIAN 3 is classified as:


NORAD ID: 37212
Int'l Code: 2010-058A
Perigee: 1,857.2 km
Apogee: 38,621.2 km
Inclination: 63.1 °
Period: 720.0 minutes
Semi major axis: 26610 km
RCS: 24.3984 m2 (large)
Launch date: November 2, 2010
Source: Commonwealth of Independent States (former USSR) (CIS)
Launch site: PLESETSK MISSILE AND SPACE COMPLEX (PKMTR)

MERIDIAN 3 is a Russian military communications satellite.
Your satellite tracking list
Your tracking list is empty





NASA's NSSDC Master Catalog

Two Line Element Set (TLE):
1 37212U 10058A   17050.43473829  .00000044  00000-0  10000-3 0  9994
2 37212  63.1213  88.4683 6907875 274.1527 221.4848  2.00611291 46157
Source of the keplerian elements: AFSPC